Regional Weather Roundup
Issued by NWS

Home | Current Version | Previous Version | Text Only | Print | Product List | Glossary On
Versions: 1 2 3 4 5 6 7 8 9 10 11 12 13 14 15 16 17 18 19 20 21 22 23 24 25 26 27 28 29 30 31 32 33 34 35 36 37 38 39 40 41 42 43 44 45 46 47 48 49
000
ASCA42 TJSJ 080210
RWRPR
PUERTO RICO/U.S. VIRGIN ISLANDS HOURLY WEATHER ROUNDUP
NATIONAL WEATHER SERVICE SAN JUAN PR
1000 PM AST SUN FEB 07 2016

PRZ001-004-080300-
PUERTO RICO

CITY           SKY/WX    TMP DP  RH WIND       PRES   REMARKS
SAN JUAN LMM   CLEAR     77  70  78 CALM      30.06R
PONCE          PTCLDY    75  72  88 NE6       30.04
AGUADILLA      CLEAR     75  72  88 CALM      30.05S
CEIBA          MOCLDY    73  72  94 CALM      30.08S
$$

PRZ006-007-080300-
U.S. VIRGIN ISLANDS

CITY           SKY/WX    TMP DP  RH WIND       PRES   REMARKS
CHRISTIANSTED  PTCLDY    75  70  83 N3        30.08R
$$

HOURLY WEATHER ROUNDUP FOR THE NEWS MEDIA

CITY           SKY/WX    TMP DP  RH WIND       PRES   REMARKS
ORLANDO        CLEAR     51  32  48 W8        30.06R
NEW YORK       CLOUDY    39  27  62 NE9       29.98F WCI  33
NEWARK         CLOUDY    39  26  59 N7        29.97F WCI  34
CHICAGO        PTCLDY    37  27  67 W12       29.74S WCI  29
HARTFORD       PTCLDY    35  30  82 NE9       30.04F WCI  28
BOSTON         CLOUDY    39  28  64 NE15      30.08F WCI  31
DALLAS         PTCLDY    52  35  52 CALM      30.16R
PHILADELPHIA   CLOUDY    40  23  50 NE8       29.95F WCI  34
LOS ANGELES    CLEAR     72  24  16 CALM      30.08S
WASHINGTON DC  MOCLDY    36  23  59 N6        29.93F WCI  31


USA.gov is the U.S. government's official web portal to all federal, state and local government web resources and services.